�������l�o���
Date,Time,MP-1(��Sv/h),MP-2(��Sv/h),MP-3(��Sv/h),MP-4(��Sv/h),MP-5(��Sv/h),MP-6(��Sv/h),MP-7(��Sv/h),MP-8(��Sv/h),����,����(m/s),���J
2016/11/27,00:00,1.101,1.842,1.232,2.069,1.436,0.574,1.040,0.965,�쐼,2.8,��
2016/11/27,00:10,1.100,1.843,1.233,2.066,1.436,0.572,1.041,0.965,���쐼,3.1,��
2016/11/27,00:20,1.101,1.846,1.233,2.070,1.436,0.573,1.042,0.967,�쐼,3.1,��
2016/11/27,00:30,1.102,1.844,1.235,2.068,1.436,0.573,1.043,0.966,���쐼,2.9,��
2016/11/27,00:40,1.102,1.844,1.233,2.068,1.434,0.572,1.043,0.965,���쐼,2.5,��
2016/11/27,00:50,1.100,1.847,1.235,2.072,1.436,0.573,1.042,0.964,��,2.5,��
2016/11/27,01:00,1.099,1.844,1.235,2.070,1.433,0.572,1.042,0.965,���쐼,2.9,�L
2016/11/27,01:10,1.100,1.841,1.234,2.069,1.437,0.574,1.042,0.965,�쐼,2.3,�L
2016/11/27,01:20,1.099,1.843,1.234,2.073,1.436,0.574,1.043,0.964,��쐼,2.6,�L
2016/11/27,01:30,1.100,1.839,1.233,2.065,1.433,0.573,1.043,0.966,��쐼,2.8,�L
2016/11/27,01:40,1.100,1.838,1.231,2.067,1.433,0.573,1.041,0.964,��쐼,3.4,�L
2016/11/27,01:50,1.098,1.836,1.232,2.065,1.431,0.573,1.041,0.964,��쐼,3.9,�L
2016/11/27,02:00,1.098,1.834,1.232,2.068,1.429,0.574,1.041,0.964,��쐼,3.8,�L
2016/11/27,02:10,1.096,1.834,1.231,2.066,1.424,0.573,1.040,0.964,��쐼,3.0,��
2016/11/27,02:20,1.098,1.839,1.231,2.064,1.431,0.574,1.040,0.965,��쐼,2.8,��
2016/11/27,02:30,1.100,1.838,1.231,2.063,1.428,0.574,1.042,0.965,��쐼,2.6,��
2016/11/27,02:40,1.098,1.834,1.231,2.066,1.430,0.575,1.041,0.963,��쐼,2.6,�L
2016/11/27,02:50,1.099,1.835,1.229,2.066,1.429,0.575,1.041,0.966,�쐼,3.9,�L
2016/11/27,03:00,1.096,1.830,1.229,2.061,1.423,0.574,1.042,0.964,�쐼,4.4,�L
2016/11/27,03:10,1.097,1.830,1.228,2.064,1.425,0.574,1.041,0.963,��쐼,4.6,��
2016/11/27,03:20,1.095,1.830,1.228,2.062,1.422,0.574,1.040,0.964,�쐼,4.1,�L
2016/11/27,03:30,1.096,1.826,1.228,2.063,1.422,0.574,1.040,0.963,��쐼,3.2,��
2016/11/27,03:40,1.095,1.827,1.229,2.063,1.424,0.576,1.039,0.963,��쐼,2.9,�L
2016/11/27,03:50,1.096,1.829,1.227,2.059,1.424,0.574,1.040,0.964,�쐼,2.6,��
2016/11/27,04:00,1.097,1.828,1.228,2.061,1.422,0.574,1.041,0.963,�쐼,2.6,��
2016/11/27,04:10,1.098,1.827,1.229,2.061,1.421,0.573,1.039,0.964,��쐼,2.8,��
2016/11/27,04:20,1.094,1.827,1.227,2.062,1.423,0.574,1.041,0.964,��쐼,2.3,��
2016/11/27,04:30,1.097,1.827,1.228,2.058,1.421,0.573,1.040,0.964,��쐼,2.5,��
2016/11/27,04:40,1.096,1.828,1.226,2.059,1.420,0.573,1.041,0.962,��쐼,2.3,��
2016/11/27,04:50,1.095,1.828,1.227,2.061,1.420,0.573,1.041,0.963,�쐼,2.3,��
2016/11/27,05:00,1.095,1.827,1.226,2.060,1.422,0.573,1.040,0.963,�쐼,1.7,��
2016/11/27,05:10,1.094,1.825,1.226,2.056,1.420,0.572,1.041,0.962,�쐼,1.2,��
2016/11/27,05:20,1.094,1.828,1.225,2.059,1.420,0.574,1.039,0.962,-,CALM,��
2016/11/27,05:30,1.095,1.825,1.226,2.059,1.422,0.573,1.039,0.963,���쐼,2.0,��
2016/11/27,05:40,1.093,1.827,1.224,2.058,1.421,0.572,1.040,0.962,�쐼,1.9,��
2016/11/27,05:50,1.093,1.829,1.229,2.061,1.420,0.572,1.039,0.963,�쐼,1.7,��
2016/11/27,06:00,1.094,1.826,1.224,2.058,1.421,0.570,1.039,0.963,���쐼,1.9,��
2016/11/27,06:10,1.095,1.826,1.226,2.061,1.422,0.572,1.038,0.962,��,1.7,��
2016/11/27,06:20,1.094,1.829,1.228,2.058,1.422,0.572,1.040,0.964,���쐼,2.2,��
2016/11/27,06:30,1.095,1.826,1.225,2.061,1.421,0.571,1.040,0.963,��,2.0,��
2016/11/27,06:40,1.093,1.826,1.226,2.058,1.422,0.571,1.040,0.964,�k��,2.2,��
2016/11/27,06:50,1.094,1.828,1.225,2.061,1.421,0.571,1.040,0.964,���k��,1.7,��
2016/11/27,07:00,1.096,1.827,1.227,2.059,1.420,0.571,1.039,0.964,���쐼,1.4,��
2016/11/27,07:10,1.095,1.823,1.228,2.059,1.422,0.572,1.038,0.963,���쐼,1.5,��
2016/11/27,07:20,1.095,1.827,1.226,2.061,1.421,0.572,1.042,0.964,���쐼,2.3,��
2016/11/27,07:30,1.093,1.829,1.227,2.061,1.423,0.572,1.039,0.963,��,2.5,��
2016/11/27,07:40,1.096,1.829,1.227,2.061,1.420,0.570,1.041,0.964,���k��,2.5,��
2016/11/27,07:50,1.096,1.828,1.228,2.059,1.419,0.573,1.040,0.964,�k��,3.4,��
2016/11/27,08:00,1.095,1.828,1.228,2.060,1.423,0.573,1.041,0.963,�k��,5.6,��
2016/11/27,08:10,1.096,1.830,1.227,2.060,1.423,0.573,1.041,0.966,�k�k��,5.8,��
2016/11/27,08:20,1.096,1.831,1.226,2.062,1.423,0.573,1.040,0.963,�k�k��,4.6,��
2016/11/27,08:30,1.098,1.827,1.226,2.059,1.424,0.573,1.040,0.964,�k�k��,4.1,��
2016/11/27,08:40,1.097,1.829,1.227,2.064,1.425,0.573,1.041,0.965,�k,5.0,��
2016/11/27,08:50,1.096,1.829,1.229,2.058,1.422,0.573,1.040,0.964,�k,4.6,��
2016/11/27,09:00,1.097,1.832,1.229,2.062,1.422,0.572,1.043,0.965,�k�k��,4.1,��
2016/11/27,09:10,1.095,1.829,1.228,2.062,1.423,0.573,1.042,0.964,�k,4.1,��
2016/11/27,09:20,1.095,1.828,1.230,2.063,1.424,0.573,1.042,0.966,�k,4.8,��
2016/11/27,09:30,1.097,1.831,1.228,2.063,1.420,0.574,1.041,0.965,�k�k��,4.4,��
2016/11/27,09:40,1.096,1.834,1.226,2.064,1.423,0.574,1.041,0.965,�k�k��,3.4,��
2016/11/27,09:50,1.097,1.833,1.230,2.060,1.422,0.574,1.041,0.966,�k��,3.6,��
2016/11/27,10:00,1.097,1.835,1.229,2.064,1.427,0.574,1.042,0.965,�k��,3.4,��
2016/11/27,10:10,1.097,1.829,1.231,2.067,1.426,0.575,1.042,0.964,�k�k��,1.5,��
2016/11/27,10:20,1.098,1.836,1.229,2.064,1.425,0.576,1.040,0.965,�k��,1.7,�L
2016/11/27,10:30,1.098,1.835,1.230,2.065,1.426,0.575,1.041,0.966,�k�k��,2.5,��
2016/11/27,10:40,1.098,1.834,1.232,2.061,1.426,0.573,1.041,0.965,�k�k��,1.1,��
2016/11/27,10:50,1.098,1.829,1.231,2.066,1.426,0.575,1.043,0.965,��,1.5,��
2016/11/27,11:00,1.101,1.834,1.231,2.065,1.427,0.575,1.042,0.965,��쓌,0.6,��
2016/11/27,11:10,1.098,1.834,1.229,2.067,1.427,0.574,1.042,0.964,��,1.2,��
2016/11/27,11:20,1.100,1.834,1.231,2.066,1.431,0.574,1.040,0.964,�쓌,1.2,��
2016/11/27,11:30,1.099,1.836,1.231,2.065,1.429,0.575,1.041,0.965,���쓌,1.2,��
2016/11/27,11:40,1.099,1.838,1.232,2.067,1.429,0.575,1.042,0.967,���k��,1.2,��
2016/11/27,11:50,1.100,1.838,1.232,2.068,1.429,0.575,1.041,0.968,�k��,2.0,��
2016/11/27,12:00,1.101,1.836,1.231,2.067,1.430,0.576,1.041,0.965,�k�k��,2.0,��
2016/11/27,12:10,1.101,1.839,1.232,2.062,1.429,0.572,1.042,0.967,�k�k��,3.5,��
2016/11/27,12:20,1.102,1.838,1.233,2.065,1.431,0.574,1.041,0.966,�k�k��,2.5,��
2016/11/27,12:30,1.101,1.837,1.234,2.069,1.429,0.575,1.043,0.967,�k�k��,2.3,��
2016/11/27,12:40,1.102,1.833,1.233,2.066,1.430,0.573,1.042,0.966,�k�k��,1.9,��
2016/11/27,12:50,1.100,1.838,1.234,2.067,1.429,0.575,1.041,0.965,�k�k��,1.7,��
2016/11/27,13:00,1.103,1.839,1.234,2.068,1.427,0.575,1.043,0.968,�k��,2.2,��
2016/11/27,13:10,1.104,1.840,1.232,2.073,1.429,0.574,1.043,0.967,�k��,2.2,��
2016/11/27,13:20,1.102,1.840,1.233,2.065,1.429,0.575,1.042,0.966,�k�k��,2.2,��
2016/11/27,13:30,1.099,1.837,1.235,2.068,1.430,0.575,1.041,0.965,�k�k��,2.9,��
2016/11/27,13:40,1.101,1.838,1.233,2.067,1.428,0.575,1.041,0.966,�k��,3.3,��
2016/11/27,13:50,1.103,1.837,1.233,2.066,1.430,0.575,1.042,0.968,�k�k��,4.0,��
2016/11/27,14:00,1.100,1.839,1.234,2.071,1.430,0.576,1.043,0.966,�k,4.3,��
2016/11/27,14:10,1.102,1.836,1.235,2.069,1.428,0.576,1.041,0.967,�k,4.3,��
2016/11/27,14:20,1.103,1.841,1.234,2.069,1.432,0.573,1.041,0.965,�k,3.9,��
2016/11/27,14:30,1.100,1.839,1.234,2.070,1.430,0.576,1.042,0.968,�k,3.9,��
2016/11/27,14:40,1.101,1.838,1.233,2.068,1.431,0.577,1.040,0.968,�k,4.5,��
2016/11/27,14:50,1.102,1.839,1.233,2.071,1.430,0.573,1.042,0.968,�k�k��,4.3,��
2016/11/27,15:00,1.102,1.842,1.234,2.069,1.434,0.575,1.041,0.964,�k�k��,4.7,�L
2016/11/27,15:10,1.103,1.841,1.234,2.072,1.433,0.576,1.042,0.967,�k�k��,4.8,�L
2016/11/27,15:20,1.101,1.839,1.233,2.069,1.430,0.576,1.044,0.968,�k�k��,4.0,�L
2016/11/27,15:30,1.101,1.841,1.232,2.070,1.432,0.575,1.041,0.966,�k�k��,4.5,�L
2016/11/27,15:40,1.102,1.838,1.236,2.068,1.429,0.575,1.043,0.967,�k�k��,4.4,�L
2016/11/27,15:50,1.103,1.840,1.231,2.067,1.434,0.576,1.043,0.965,�k�k��,5.1,��
2016/11/27,16:00,1.102,1.838,1.233,2.065,1.431,0.575,1.044,0.966,�k�k��,5.1,��
2016/11/27,16:10,1.101,1.839,1.232,2.066,1.430,0.576,1.042,0.966,�k��,4.8,�L
2016/11/27,16:20,1.101,1.837,1.232,2.070,1.430,0.576,1.044,0.966,�k�k��,4.5,�L
2016/11/27,16:30,1.099,1.835,1.233,2.067,1.430,0.575,1.044,0.966,�k�k��,5.1,�L
2016/11/27,16:40,1.100,1.833,1.232,2.069,1.426,0.576,1.044,0.964,�k�k��,4.9,��
2016/11/27,16:50,1.101,1.835,1.231,2.068,1.426,0.576,1.043,0.965,�k�k��,4.9,��
2016/11/27,17:00,1.101,1.830,1.233,2.069,1.427,0.575,1.042,0.965,�k�k��,5.0,��
2016/11/27,17:10,1.098,1.832,1.229,2.069,1.428,0.574,1.043,0.965,�k�k��,4.8,��
2016/11/27,17:20,1.100,1.834,1.231,2.068,1.427,0.576,1.045,0.967,�k�k��,5.3,��
2016/11/27,17:30,1.098,1.835,1.232,2.065,1.430,0.574,1.044,0.968,�k�k��,5.0,��
2016/11/27,17:40,1.099,1.833,1.232,2.067,1.426,0.575,1.043,0.965,�k�k��,5.8,��
2016/11/27,17:50,1.096,1.834,1.232,2.068,1.429,0.574,1.043,0.967,�k�k��,5.3,�L
2016/11/27,18:00,1.097,1.831,1.233,2.066,1.429,0.575,1.042,0.966,�k�k��,5.9,�L
2016/11/27,18:10,1.100,1.832,1.231,2.068,1.424,0.574,1.043,0.965,�k�k��,5.1,�L
2016/11/27,18:20,1.099,1.832,1.233,2.068,1.427,0.578,1.042,0.964,�k�k��,5.8,��
2016/11/27,18:30,1.099,1.833,1.231,2.070,1.426,0.576,1.045,0.965,�k�k��,6.0,�L
2016/11/27,18:40,1.100,1.832,1.229,2.067,1.426,0.577,1.041,0.964,�k�k��,6.1,��
2016/11/27,18:50,1.098,1.831,1.231,2.067,1.426,0.576,1.041,0.967,�k�k��,6.1,��
2016/11/27,19:00,1.097,1.832,1.231,2.066,1.423,0.575,1.043,0.965,�k�k��,5.6,��
2016/11/27,19:10,1.101,1.833,1.230,2.068,1.423,0.576,1.042,0.963,�k�k��,6.0,�L
2016/11/27,19:20,1.100,1.832,1.230,2.067,1.424,0.575,1.042,0.965,�k�k��,6.8,�L
2016/11/27,19:30,1.098,1.829,1.229,2.067,1.424,0.576,1.042,0.965,�k�k��,6.6,�L
2016/11/27,19:40,1.098,1.825,1.230,2.066,1.422,0.576,1.043,0.963,�k�k��,6.6,�L
2016/11/27,19:50,1.096,1.827,1.233,2.066,1.421,0.576,1.041,0.965,�k��,6.4,�L
2016/11/27,20:00,1.099,1.827,1.229,2.066,1.423,0.576,1.040,0.966,�k��,6.7,�L
2016/11/27,20:10,1.095,1.825,1.228,2.064,1.419,0.575,1.041,0.964,�k��,6.2,�L
2016/11/27,20:20,1.096,1.825,1.230,2.073,1.417,0.575,1.041,0.965,�k��,6.6,�L
2016/11/27,20:30,1.097,1.823,1.227,2.064,1.418,0.574,1.041,0.961,�k��,6.5,�L
2016/11/27,20:40,1.093,1.819,1.225,2.064,1.418,0.576,1.039,0.963,�k��,6.5,�L
2016/11/27,20:50,1.093,1.816,1.226,2.059,1.416,0.576,1.038,0.962,�k�k��,7.0,�L
2016/11/27,21:00,1.094,1.817,1.225,2.060,1.411,0.574,1.038,0.962,�k�k��,6.3,�L
2016/11/27,21:10,1.092,1.819,1.224,2.058,1.413,0.575,1.039,0.960,�k�k��,6.7,��
2016/11/27,21:20,1.090,1.815,1.222,2.055,1.412,0.574,1.039,0.964,�k�k��,6.6,��
2016/11/27,21:30,1.090,1.815,1.224,2.053,1.411,0.574,1.038,0.962,�k�k��,6.3,�L
2016/11/27,21:40,1.088,1.812,1.221,2.056,1.411,0.574,1.039,0.962,�k�k��,6.0,�L
2016/11/27,21:50,1.089,1.811,1.223,2.052,1.408,0.573,1.038,0.962,�k�k��,6.8,�L
2016/11/27,22:00,1.089,1.812,1.221,2.056,1.408,0.574,1.039,0.963,�k�k��,7.0,�L
2016/11/27,22:10,1.089,1.809,1.218,2.052,1.406,0.575,1.037,0.960,�k��,6.6,�L
2016/11/27,22:20,1.088,1.808,1.220,2.052,1.408,0.575,1.036,0.961,�k��,6.6,�L
2016/11/27,22:30,1.088,1.809,1.220,2.047,1.404,0.575,1.036,0.961,�k��,7.2,�L
2016/11/27,22:40,1.087,1.805,1.217,2.043,1.403,0.575,1.034,0.960,�k�k��,7.9,�L
2016/11/27,22:50,1.086,1.800,1.216,2.043,1.400,0.575,1.033,0.960,�k�k��,7.5,�L
2016/11/27,23:00,1.083,1.792,1.214,2.037,1.397,0.576,1.032,0.960,�k�k��,6.9,�L
2016/11/27,23:10,1.081,1.790,1.210,2.035,1.393,0.574,1.030,0.959,�k�k��,4.1,�L
2016/11/27,23:20,1.079,1.787,1.211,2.027,1.389,0.575,1.028,0.958,�k�k��,6.5,�L
2016/11/27,23:30,1.080,1.788,1.210,2.024,1.389,0.573,1.031,0.956,�k�k��,6.7,�L
2016/11/27,23:40,1.080,1.786,1.212,2.020,1.388,0.572,1.028,0.956,�k�k��,5.9,�L
2016/11/27,23:50,1.080,1.789,1.210,2.020,1.392,0.573,1.029,0.956,�k�k��,4.5,�L
